New York Downtown Manhattan/w, NY

7:18 AM EST on November 22, 2019 (GMT -0500)
New York Downtown Manhattan/w

Weather History for KJRB - June, 2019

Change the Weather History Date:

Sunday, June 9, 2019

  Actual Average (WUND) Record (WUND)
Temperature  
Mean Temperature 70 °F -  
Max Temperature 77 °F - - (-1)
Min Temperature 63 °F - - (-1)
Cooling Degree Days 5    
Growing Degree Days 20 (Base 50)    
Moisture  
Dew Point 50 °F    
Average Humidity 52    
Maximum Humidity 72    
Minimum Humidity 35    
Precipitation  
Precipitation 0.02 in - - ()
Sea Level Pressure  
Sea Level Pressure 30.29 in    
Wind  
Wind Speed 9 mph ()    
Max Wind Speed 15 mph    
Max Gust Speed 25 mph    
Visibility 10.0 miles    
Events      
Averages and records for this station are not official NWS values.
T = Trace of Precipitation, MM = Missing Value Source: Averaged Metar Reports

Daily Weather History Graph

Daily Weather History Graph

Search for Another Location

Airport or City:

Astronomy

Jun. 09, 2019 Rise Set
Actual Time 5:24 AM EDT 8:26 PM EDT
Civil Twilight 4:51 AM EDT 8:59 PM EDT
Nautical Twilight 4:09 AM EDT 9:41 PM EDT
Astronomical Twilight 3:20 AM EDT 10:30 PM EDT
Moon 12:01 PM EDT (6/9) 1:03 AM EDT (6/9)
Length of Visible Light 16h 07m
Length of Day
15h 01m
Waxing Crescent, 43% of the Moon is Illuminated
Jun 9
Waxing Crescent
Jun 10
First Quarter
Jun 17
Full
Jun 25
Last Quarter
Jul 2
New

Hourly Weather History & Observations

Time (EDT) Temp. Dew Point Humidity Pressure Visibility Wind Dir Wind Speed Gust Speed Precip Events Conditions
12:56 AM 64.9 °F 48.9 °F 56% 30.25 in 10.0 mi NNE 9.2 mph - N/A   Clear
1:56 AM 64.0 °F 48.9 °F 58% 30.25 in 10.0 mi NE 6.9 mph - N/A   Clear
2:56 AM 64.0 °F 50.0 °F 60% 30.26 in 10.0 mi NE 6.9 mph - N/A   Clear
3:56 AM 64.0 °F 51.1 °F 63% 30.26 in 10.0 mi NNE 6.9 mph - N/A   Clear
4:56 AM 64.0 °F 52.0 °F 65% 30.25 in 10.0 mi NE 11.5 mph - N/A   Clear
5:56 AM 63.0 °F 53.1 °F 70% 30.27 in 10.0 mi NE 13.8 mph - N/A   Clear
6:56 AM 63.0 °F 54.0 °F 72% 30.29 in 10.0 mi NE 15.0 mph - N/A   Clear
7:56 AM 64.0 °F 54.0 °F 70% 30.30 in 10.0 mi NE 12.7 mph - N/A   Clear
8:56 AM 66.0 °F 54.0 °F 65% 30.31 in 10.0 mi NE 11.5 mph - N/A   Clear
9:56 AM 73.0 °F 55.0 °F 53% 30.32 in 10.0 mi NE 5.8 mph - N/A   Clear
10:56 AM 77.0 °F 55.0 °F 47% 30.32 in 10.0 mi NE 9.2 mph - N/A   Clear
11:56 AM 77.0 °F 52.0 °F 42% 30.32 in 10.0 mi Variable 6.9 mph 24.2 mph N/A   Clear
12:56 PM 75.9 °F 48.0 °F 37% 30.32 in 10.0 mi SE 9.2 mph 18.4 mph N/A   Clear
1:56 PM 75.9 °F 48.9 °F 38% 30.32 in 10.0 mi SE 15.0 mph - N/A   Clear
2:56 PM 75.9 °F 46.0 °F 35% 30.31 in 10.0 mi East 12.7 mph 19.6 mph N/A   Clear
3:56 PM 75.9 °F 50.0 °F 40% 30.31 in 10.0 mi East 8.1 mph - 0.02 in   Clear
4:56 PM 73.9 °F 46.9 °F 38% 30.30 in 10.0 mi East 9.2 mph 25.3 mph N/A   Clear
5:56 PM 75.9 °F 46.0 °F 35% 30.28 in 10.0 mi ENE 11.5 mph 16.1 mph N/A   Clear
6:56 PM 72.0 °F 43.0 °F 35% 30.27 in 10.0 mi East 10.4 mph 18.4 mph N/A   Clear
7:56 PM 70.0 °F 43.0 °F 38% 30.28 in 10.0 mi East 9.2 mph - N/A   Clear
8:56 PM 66.0 °F 48.0 °F 52% 30.28 in 10.0 mi East 10.4 mph - N/A   Clear
9:56 PM 64.9 °F 46.9 °F 52% 30.27 in 10.0 mi NE 13.8 mph - N/A   Clear
10:56 PM 64.0 °F 48.9 °F 58% 30.27 in 10.0 mi NE 10.4 mph - N/A   Clear
11:56 PM 63.0 °F 50.0 °F 63% 30.25 in 10.0 mi NE 11.5 mph - N/A   Clear